﻿"Plot Title: Fidalgo May 2014"
"#","Date Time, GMT-07:00","Temp, °C (LGR S/N: 10397702, SEN S/N: 10397702)"
1,04/29/14 06:43:25 PM,25.125
2,04/29/14 06:58:25 PM,25.708
3,04/29/14 07:13:25 PM,25.222
4,04/29/14 07:28:25 PM,25.028
5,04/29/14 07:43:25 PM,24.835
6,04/29/14 07:58:25 PM,24.641
7,04/29/14 08:13:25 PM,24.545
8,04/29/14 08:28:25 PM,24.448
9,04/29/14 08:43:25 PM,24.351
10,04/29/14 08:58:25 PM,24.158
11,04/29/14 09:13:25 PM,24.158
12,04/29/14 09:28:25 PM,24.062
13,04/29/14 09:43:25 PM,23.966
14,04/29/14 09:58:25 PM,23.869
15,04/29/14 10:13:25 PM,23.773
16,04/29/14 10:28:25 PM,23.677
17,04/29/14 10:43:25 PM,23.484
18,04/29/14 10:58:25 PM,23.292
19,04/29/14 11:13:25 PM,23.100
20,04/29/14 11:28:25 PM,22.908
21,04/29/14 11:43:25 PM,22.717
22,04/29/14 11:58:25 PM,22.429
23,04/30/14 12:13:25 AM,22.238
24,04/30/14 12:28:25 AM,21.951
25,04/30/14 12:43:25 AM,21.664
26,04/30/14 12:58:25 AM,21.378
27,04/30/14 01:13:25 AM,21.091
28,04/30/14 01:28:25 AM,20.805
29,04/30/14 01:43:25 AM,20.519
30,04/30/14 01:58:25 AM,20.138
31,04/30/14 02:13:25 AM,19.853
32,04/30/14 02:28:25 AM,19.472
33,04/30/14 02:43:25 AM,19.187
34,04/30/14 02:58:25 AM,18.901
35,04/30/14 03:13:25 AM,18.521
36,04/30/14 03:28:25 AM,18.236
37,04/30/14 03:43:25 AM,17.950
38,04/30/14 03:58:25 AM,17.570
39,04/30/14 04:13:25 AM,17.284
40,04/30/14 04:28:25 AM,16.999
41,04/30/14 04:43:25 AM,16.713
42,04/30/14 04:58:25 AM,16.427
43,04/30/14 05:13:25 AM,16.237
44,04/30/14 05:28:25 AM,15.951
45,04/30/14 05:43:25 AM,15.664
46,04/30/14 05:58:25 AM,15.378
47,04/30/14 06:13:25 AM,15.187
48,04/30/14 06:28:25 AM,14.900
49,04/30/14 06:43:25 AM,14.709
50,04/30/14 06:58:25 AM,14.517
51,04/30/14 07:13:25 AM,14.325
52,04/30/14 07:28:25 AM,14.230
53,04/30/14 07:43:25 AM,14.134
54,04/30/14 07:58:25 AM,14.038
55,04/30/14 08:13:25 AM,14.134
56,04/30/14 08:28:25 AM,14.421
57,04/30/14 08:43:25 AM,14.804
58,04/30/14 08:58:25 AM,15.282
59,04/30/14 09:13:25 AM,16.141
60,04/30/14 09:28:25 AM,16.903
61,04/30/14 09:43:25 AM,17.379
62,04/30/14 09:58:25 AM,17.855
63,04/30/14 10:13:25 AM,18.236
64,04/30/14 10:28:25 AM,19.187
65,04/30/14 10:43:25 AM,25.416
66,04/30/14 10:58:25 AM,33.953
67,04/30/14 11:13:25 AM,37.604
68,04/30/14 11:28:25 AM,41.108
69,04/30/14 11:43:25 AM,44.089
70,04/30/14 11:58:25 AM,46.083
71,04/30/14 12:13:25 PM,43.844
72,04/30/14 12:28:25 PM,40.185
73,04/30/14 12:43:25 PM,38.268
74,04/30/14 12:58:25 PM,40.071
75,04/30/14 01:13:25 PM,40.761
76,04/30/14 01:28:25 PM,38.379
77,04/30/14 01:43:25 PM,37.055
78,04/30/14 01:58:25 PM,36.511
79,04/30/14 02:13:25 PM,35.971
80,04/30/14 02:28:25 PM,34.058
81,04/30/14 02:43:25 PM,33.953
82,04/30/14 02:58:25 PM,34.374
83,04/30/14 03:13:25 PM,34.058
84,04/30/14 03:28:25 PM,33.430
85,04/30/14 03:43:25 PM,33.953
86,04/30/14 03:58:25 PM,33.535
87,04/30/14 04:13:25 PM,33.014
88,04/30/14 04:28:25 PM,32.911
89,04/30/14 04:43:25 PM,32.911
90,04/30/14 04:58:25 PM,32.497
91,04/30/14 05:13:25 PM,33.639
92,04/30/14 05:28:25 PM,35.435
93,04/30/14 05:43:25 PM,36.511
94,04/30/14 05:58:25 PM,36.511
95,04/30/14 06:13:25 PM,35.328
96,04/30/14 06:28:25 PM,34.585
97,04/30/14 06:43:25 PM,33.953
98,04/30/14 06:58:25 PM,33.326
99,04/30/14 07:13:25 PM,32.704
100,04/30/14 07:28:25 PM,31.574
101,04/30/14 07:43:25 PM,30.659
102,04/30/14 07:58:25 PM,30.054
103,04/30/14 08:13:25 PM,29.552
104,04/30/14 08:28:25 PM,29.152
105,04/30/14 08:43:25 PM,28.953
106,04/30/14 08:58:25 PM,28.754
107,04/30/14 09:13:25 PM,28.655
108,04/30/14 09:28:25 PM,28.456
109,04/30/14 09:43:25 PM,28.357
110,04/30/14 09:58:25 PM,28.159
111,04/30/14 10:13:25 PM,27.862
112,04/30/14 10:28:25 PM,27.567
113,04/30/14 10:43:25 PM,27.173
114,04/30/14 10:58:25 PM,26.781
115,04/30/14 11:13:25 PM,26.390
116,04/30/14 11:28:25 PM,26.000
117,04/30/14 11:43:25 PM,25.610
118,04/30/14 11:58:25 PM,25.222
119,05/01/14 12:13:25 AM,24.738
120,05/01/14 12:28:25 AM,24.351
121,05/01/14 12:43:25 AM,23.966
122,05/01/14 12:58:25 AM,23.581
123,05/01/14 01:13:25 AM,23.196
124,05/01/14 01:28:25 AM,22.812
125,05/01/14 01:43:25 AM,22.429
126,05/01/14 01:58:25 AM,22.142
127,05/01/14 02:13:25 AM,21.760
128,05/01/14 02:28:25 AM,21.473
129,05/01/14 02:43:25 AM,21.091
130,05/01/14 02:58:25 AM,20.710
131,05/01/14 03:13:25 AM,20.424
132,05/01/14 03:28:25 AM,20.043
133,05/01/14 03:43:25 AM,19.758
134,05/01/14 03:58:25 AM,19.377
135,05/01/14 04:13:25 AM,19.092
136,05/01/14 04:28:25 AM,18.806
137,05/01/14 04:43:25 AM,18.426
138,05/01/14 04:58:25 AM,18.140
139,05/01/14 05:13:25 AM,17.855
140,05/01/14 05:28:25 AM,17.570
141,05/01/14 05:43:25 AM,17.284
142,05/01/14 05:58:25 AM,16.999
143,05/01/14 06:13:25 AM,16.713
144,05/01/14 06:28:25 AM,16.427
145,05/01/14 06:43:25 AM,16.237
146,05/01/14 06:58:25 AM,16.046
147,05/01/14 07:13:25 AM,15.855
148,05/01/14 07:28:25 AM,15.664
149,05/01/14 07:43:25 AM,15.664
150,05/01/14 07:58:25 AM,15.855
151,05/01/14 08:13:25 AM,16.046
152,05/01/14 08:28:25 AM,16.427
153,05/01/14 08:43:25 AM,16.808
154,05/01/14 08:58:25 AM,17.284
155,05/01/14 09:13:25 AM,17.760
156,05/01/14 09:28:25 AM,18.331
157,05/01/14 09:43:25 AM,18.901
158,05/01/14 09:58:25 AM,19.948
159,05/01/14 10:13:25 AM,20.710
160,05/01/14 10:28:25 AM,21.951
161,05/01/14 10:43:25 AM,26.977
162,05/01/14 10:58:25 AM,30.558
163,05/01/14 11:13:25 AM,32.086
164,05/01/14 11:28:25 AM,33.953
165,05/01/14 11:43:25 AM,35.542
166,05/01/14 11:58:25 AM,35.009
167,05/01/14 12:13:25 PM,35.435
168,05/01/14 12:28:25 PM,35.542
169,05/01/14 12:43:25 PM,35.971
170,05/01/14 12:58:25 PM,51.295
171,05/01/14 01:13:25 PM,55.580
172,05/01/14 01:28:25 PM,55.425
173,05/01/14 01:43:25 PM,54.964
174,05/01/14 01:58:25 PM,55.735
175,05/01/14 02:13:25 PM,56.362
176,05/01/14 02:28:25 PM,55.117
177,05/01/14 02:43:25 PM,53.461
178,05/01/14 02:58:25 PM,53.461
179,05/01/14 03:13:25 PM,51.863
180,05/01/14 03:28:25 PM,49.225
181,05/01/14 03:43:25 PM,46.722
182,05/01/14 03:58:25 PM,45.326
183,05/01/14 04:13:25 PM,44.211
184,05/01/14 04:28:25 PM,41.810
185,05/01/14 04:43:25 PM,37.165
186,05/01/14 04:58:25 PM,35.222
187,05/01/14 05:13:25 PM,34.058
188,05/01/14 05:28:25 PM,33.222
189,05/01/14 05:43:25 PM,32.497
190,05/01/14 05:58:25 PM,31.983
191,05/01/14 06:13:25 PM,31.676
192,05/01/14 06:28:25 PM,31.472
193,05/01/14 06:43:25 PM,31.268
194,05/01/14 06:58:25 PM,31.166
195,05/01/14 07:13:25 PM,30.963
196,05/01/14 07:28:25 PM,30.659
197,05/01/14 07:43:25 PM,30.457
198,05/01/14 07:58:25 PM,30.154
199,05/01/14 08:13:25 PM,30.054
200,05/01/14 08:28:25 PM,29.953
201,05/01/14 08:43:25 PM,29.953
202,05/01/14 08:58:25 PM,29.853
203,05/01/14 09:13:25 PM,29.752
204,05/01/14 09:28:25 PM,29.652
205,05/01/14 09:43:25 PM,29.552
206,05/01/14 09:58:25 PM,29.352
207,05/01/14 10:13:25 PM,29.252
208,05/01/14 10:28:25 PM,28.953
209,05/01/14 10:43:25 PM,28.754
210,05/01/14 10:58:25 PM,28.555
211,05/01/14 11:13:25 PM,28.258
212,05/01/14 11:28:25 PM,27.961
213,05/01/14 11:43:25 PM,27.665
214,05/01/14 11:58:25 PM,27.370
215,05/02/14 12:13:25 AM,27.075
216,05/02/14 12:28:25 AM,26.781
217,05/02/14 12:43:25 AM,26.488
218,05/02/14 12:58:25 AM,26.195
219,05/02/14 01:13:25 AM,25.902
220,05/02/14 01:28:25 AM,25.610
221,05/02/14 01:43:25 AM,25.319
222,05/02/14 01:58:25 AM,24.931
223,05/02/14 02:13:25 AM,24.641
224,05/02/14 02:28:25 AM,24.351
225,05/02/14 02:43:25 AM,24.062
226,05/02/14 02:58:25 AM,23.773
227,05/02/14 03:13:25 AM,23.484
228,05/02/14 03:28:25 AM,23.196
229,05/02/14 03:43:25 AM,23.004
230,05/02/14 03:58:25 AM,22.717
231,05/02/14 04:13:25 AM,22.429
232,05/02/14 04:28:25 AM,22.238
233,05/02/14 04:43:25 AM,21.951
234,05/02/14 04:58:25 AM,21.664
235,05/02/14 05:13:25 AM,21.473
236,05/02/14 05:28:25 AM,21.187
237,05/02/14 05:43:25 AM,20.901
238,05/02/14 05:58:25 AM,20.710
239,05/02/14 06:13:25 AM,20.424
240,05/02/14 06:28:25 AM,20.234
241,05/02/14 06:43:25 AM,19.948
242,05/02/14 06:58:25 AM,19.758
243,05/02/14 07:13:25 AM,19.472
244,05/02/14 07:28:25 AM,19.282
245,05/02/14 07:43:25 AM,19.187
246,05/02/14 07:58:25 AM,19.092
247,05/02/14 08:13:25 AM,19.092
248,05/02/14 08:28:25 AM,19.187
249,05/02/14 08:43:25 AM,19.377
250,05/02/14 08:58:25 AM,19.662
251,05/02/14 09:13:25 AM,19.853
252,05/02/14 09:28:25 AM,19.948
253,05/02/14 09:43:25 AM,20.138
254,05/02/14 09:58:25 AM,19.567
255,05/02/14 10:13:25 AM,20.234
256,05/02/14 10:28:25 AM,20.996
257,05/02/14 10:43:25 AM,21.282
258,05/02/14 10:58:25 AM,23.484
259,05/02/14 11:13:25 AM,24.062
260,05/02/14 11:28:25 AM,25.902
261,05/02/14 11:43:25 AM,27.075
262,05/02/14 11:58:25 AM,26.683
263,05/02/14 12:13:25 PM,26.488
264,05/02/14 12:28:25 PM,25.708
265,05/02/14 12:43:25 PM,26.292
266,05/02/14 12:58:25 PM,26.585
267,05/02/14 01:13:25 PM,26.195
268,05/02/14 01:28:25 PM,22.812
269,05/02/14 01:43:25 PM,20.615
270,05/02/14 01:58:25 PM,21.951
271,05/02/14 02:13:25 PM,21.187
272,05/02/14 02:28:25 PM,19.282
273,05/02/14 02:43:25 PM,19.853
274,05/02/14 02:58:25 PM,11.819
275,05/02/14 03:13:25 PM,10.553
276,05/02/14 03:28:25 PM,10.357
277,05/02/14 03:43:25 PM,10.455
278,05/02/14 03:58:25 PM,10.846
279,05/02/14 04:13:25 PM,10.846
280,05/02/14 04:28:25 PM,10.846
281,05/02/14 04:43:25 PM,10.944
282,05/02/14 04:58:25 PM,10.846
283,05/02/14 05:13:25 PM,10.748
284,05/02/14 05:28:25 PM,10.553
285,05/02/14 05:43:25 PM,10.553
286,05/02/14 05:58:25 PM,10.748
287,05/02/14 06:13:25 PM,10.846
288,05/02/14 06:28:25 PM,10.651
289,05/02/14 06:43:25 PM,10.455
290,05/02/14 06:58:25 PM,10.748
291,05/02/14 07:13:25 PM,10.846
292,05/02/14 07:28:25 PM,10.944
293,05/02/14 07:43:25 PM,11.041
294,05/02/14 07:58:25 PM,10.748
295,05/02/14 08:13:25 PM,10.651
296,05/02/14 08:28:25 PM,10.553
297,05/02/14 08:43:25 PM,10.455
298,05/02/14 08:58:25 PM,10.357
299,05/02/14 09:13:25 PM,10.357
300,05/02/14 09:28:25 PM,10.553
301,05/02/14 09:43:25 PM,10.161
302,05/02/14 09:58:25 PM,10.259
303,05/02/14 10:13:25 PM,10.259
304,05/02/14 10:28:25 PM,10.259
305,05/02/14 10:43:25 PM,10.357
306,05/02/14 10:58:25 PM,10.161
307,05/02/14 11:13:25 PM,10.455
308,05/02/14 11:28:25 PM,10.259
309,05/02/14 11:43:25 PM,10.259
310,05/02/14 11:58:25 PM,10.259
311,05/03/14 12:13:25 AM,10.259
312,05/03/14 12:28:25 AM,10.161
313,05/03/14 12:43:25 AM,10.161
314,05/03/14 12:58:25 AM,10.063
315,05/03/14 01:13:25 AM,9.965
316,05/03/14 01:28:25 AM,9.965
317,05/03/14 01:43:25 AM,9.965
318,05/03/14 01:58:25 AM,9.965
319,05/03/14 02:13:25 AM,9.965
320,05/03/14 02:28:25 AM,9.965
321,05/03/14 02:43:25 AM,10.063
322,05/03/14 02:58:25 AM,10.063
323,05/03/14 03:13:25 AM,10.063
324,05/03/14 03:28:25 AM,10.063
325,05/03/14 03:43:25 AM,10.063
326,05/03/14 03:58:25 AM,10.063
327,05/03/14 04:13:25 AM,9.965
328,05/03/14 04:28:25 AM,9.965
329,05/03/14 04:43:25 AM,9.965
330,05/03/14 04:58:25 AM,9.965
331,05/03/14 05:13:25 AM,9.965
332,05/03/14 05:28:25 AM,9.965
333,05/03/14 05:43:25 AM,9.965
334,05/03/14 05:58:25 AM,9.965
335,05/03/14 06:13:25 AM,9.965
336,05/03/14 06:28:25 AM,9.965
337,05/03/14 06:43:25 AM,9.866
338,05/03/14 06:58:25 AM,9.866
339,05/03/14 07:13:25 AM,9.866
340,05/03/14 07:28:25 AM,9.866
341,05/03/14 07:43:25 AM,9.965
342,05/03/14 07:58:25 AM,9.965
343,05/03/14 08:13:25 AM,9.965
344,05/03/14 08:28:25 AM,9.965
345,05/03/14 08:43:25 AM,9.965
346,05/03/14 08:58:25 AM,9.965
347,05/03/14 09:13:25 AM,9.965
348,05/03/14 09:28:25 AM,9.965
349,05/03/14 09:43:25 AM,9.965
350,05/03/14 09:58:25 AM,9.965
351,05/03/14 10:13:25 AM,10.063
352,05/03/14 10:28:25 AM,10.063
353,05/03/14 10:43:25 AM,10.063
354,05/03/14 10:58:25 AM,10.161
355,05/03/14 11:13:25 AM,10.161
356,05/03/14 11:28:25 AM,10.063
357,05/03/14 11:43:25 AM,10.063
358,05/03/14 11:58:25 AM,10.161
359,05/03/14 12:13:25 PM,10.161
360,05/03/14 12:28:25 PM,10.063
361,05/03/14 12:43:25 PM,10.063
362,05/03/14 12:58:25 PM,10.063
363,05/03/14 01:13:25 PM,10.161
364,05/03/14 01:28:25 PM,10.063
365,05/03/14 01:43:25 PM,10.455
366,05/03/14 01:58:25 PM,10.063
367,05/03/14 02:13:25 PM,10.259
368,05/03/14 02:28:25 PM,10.357
369,05/03/14 02:43:25 PM,10.259
370,05/03/14 02:58:25 PM,10.161
371,05/03/14 03:13:25 PM,10.259
372,05/03/14 03:28:25 PM,10.063
373,05/03/14 03:43:25 PM,10.063
374,05/03/14 03:58:25 PM,10.161
375,05/03/14 04:13:25 PM,10.357
376,05/03/14 04:28:25 PM,10.553
377,05/03/14 04:43:25 PM,10.455
378,05/03/14 04:58:25 PM,10.553
379,05/03/14 05:13:25 PM,10.553
380,05/03/14 05:28:25 PM,10.553
381,05/03/14 05:43:25 PM,10.553
382,05/03/14 05:58:25 PM,10.651
383,05/03/14 06:13:25 PM,10.651
384,05/03/14 06:28:25 PM,10.651
385,05/03/14 06:43:25 PM,10.651
386,05/03/14 06:58:25 PM,10.651
387,05/03/14 07:13:25 PM,10.651
388,05/03/14 07:28:25 PM,10.553
389,05/03/14 07:43:25 PM,10.553
390,05/03/14 07:58:25 PM,10.553
391,05/03/14 08:13:25 PM,10.553
392,05/03/14 08:28:25 PM,10.553
393,05/03/14 08:43:25 PM,10.553
394,05/03/14 08:58:25 PM,10.651
395,05/03/14 09:13:25 PM,10.651
396,05/03/14 09:28:25 PM,10.748
397,05/03/14 09:43:25 PM,10.651
398,05/03/14 09:58:25 PM,10.651
399,05/03/14 10:13:25 PM,10.651
400,05/03/14 10:28:25 PM,10.651
401,05/03/14 10:43:25 PM,10.651
402,05/03/14 10:58:25 PM,10.651
403,05/03/14 11:13:25 PM,10.553
404,05/03/14 11:28:25 PM,10.553
405,05/03/14 11:43:25 PM,10.651
406,05/03/14 11:58:25 PM,10.748
407,05/04/14 12:13:25 AM,10.748
408,05/04/14 12:28:25 AM,10.748
409,05/04/14 12:43:25 AM,10.748
410,05/04/14 12:58:25 AM,10.651
411,05/04/14 01:13:25 AM,10.455
412,05/04/14 01:28:25 AM,10.357
413,05/04/14 01:43:25 AM,10.357
414,05/04/14 01:58:25 AM,10.259
415,05/04/14 02:13:25 AM,10.259
416,05/04/14 02:28:25 AM,10.161
417,05/04/14 02:43:25 AM,10.161
418,05/04/14 02:58:25 AM,10.161
419,05/04/14 03:13:25 AM,10.161
420,05/04/14 03:28:25 AM,10.063
421,05/04/14 03:43:25 AM,10.063
422,05/04/14 03:58:25 AM,10.063
423,05/04/14 04:13:25 AM,10.063
424,05/04/14 04:28:25 AM,10.063
425,05/04/14 04:43:25 AM,10.063
426,05/04/14 04:58:25 AM,10.063
427,05/04/14 05:13:25 AM,10.063
428,05/04/14 05:28:25 AM,9.965
429,05/04/14 05:43:25 AM,9.965
430,05/04/14 05:58:25 AM,9.965
431,05/04/14 06:13:25 AM,10.063
432,05/04/14 06:28:25 AM,10.063
433,05/04/14 06:43:25 AM,10.063
434,05/04/14 06:58:25 AM,10.063
435,05/04/14 07:13:25 AM,10.063
436,05/04/14 07:28:25 AM,10.063
437,05/04/14 07:43:25 AM,10.063
438,05/04/14 07:58:25 AM,10.063
439,05/04/14 08:13:25 AM,10.161
440,05/04/14 08:28:25 AM,10.161
441,05/04/14 08:43:25 AM,10.161
442,05/04/14 08:58:25 AM,10.063
443,05/04/14 09:13:25 AM,10.161
444,05/04/14 09:28:25 AM,10.161
445,05/04/14 09:43:25 AM,10.259
446,05/04/14 09:58:25 AM,10.259
447,05/04/14 10:13:25 AM,10.259
448,05/04/14 10:28:25 AM,10.161
449,05/04/14 10:43:25 AM,10.161
450,05/04/14 10:58:25 AM,10.161
451,05/04/14 11:13:25 AM,10.161
452,05/04/14 11:28:25 AM,10.161
453,05/04/14 11:43:25 AM,10.161
454,05/04/14 11:58:25 AM,10.161
455,05/04/14 12:13:25 PM,10.259
456,05/04/14 12:28:25 PM,10.259
457,05/04/14 12:43:25 PM,10.259
458,05/04/14 12:58:25 PM,10.259
459,05/04/14 01:13:25 PM,10.259
460,05/04/14 01:28:25 PM,10.357
461,05/04/14 01:43:25 PM,10.259
462,05/04/14 01:58:25 PM,10.259
463,05/04/14 02:13:25 PM,10.259
464,05/04/14 02:28:25 PM,10.259
465,05/04/14 02:43:25 PM,10.259
466,05/04/14 02:58:25 PM,10.259
467,05/04/14 03:13:25 PM,10.259
468,05/04/14 03:28:25 PM,10.161
469,05/04/14 03:43:25 PM,10.259
470,05/04/14 03:58:25 PM,10.259
471,05/04/14 04:13:25 PM,10.259
472,05/04/14 04:28:25 PM,10.259
473,05/04/14 04:43:25 PM,10.259
474,05/04/14 04:58:25 PM,10.259
475,05/04/14 05:13:25 PM,10.357
476,05/04/14 05:28:25 PM,10.357
477,05/04/14 05:43:25 PM,10.455
478,05/04/14 05:58:25 PM,10.455
479,05/04/14 06:13:25 PM,10.455
480,05/04/14 06:28:25 PM,10.455
481,05/04/14 06:43:25 PM,10.455
482,05/04/14 06:58:25 PM,10.553
483,05/04/14 07:13:25 PM,10.553
484,05/04/14 07:28:25 PM,10.553
485,05/04/14 07:43:25 PM,10.553
486,05/04/14 07:58:25 PM,10.553
487,05/04/14 08:13:25 PM,10.553
488,05/04/14 08:28:25 PM,10.455
489,05/04/14 08:43:25 PM,10.553
490,05/04/14 08:58:25 PM,10.553
491,05/04/14 09:13:25 PM,10.553
492,05/04/14 09:28:25 PM,10.553
493,05/04/14 09:43:25 PM,10.553
494,05/04/14 09:58:25 PM,10.553
495,05/04/14 10:13:25 PM,10.553
496,05/04/14 10:28:25 PM,10.553
497,05/04/14 10:43:25 PM,10.553
498,05/04/14 10:58:25 PM,10.553
499,05/04/14 11:13:25 PM,10.553
500,05/04/14 11:28:25 PM,10.553
501,05/04/14 11:43:25 PM,10.455
502,05/04/14 11:58:25 PM,10.455
503,05/05/14 12:13:25 AM,10.357
504,05/05/14 12:28:25 AM,10.455
505,05/05/14 12:43:25 AM,10.357
506,05/05/14 12:58:25 AM,10.357
507,05/05/14 01:13:25 AM,10.455
508,05/05/14 01:28:25 AM,10.455
509,05/05/14 01:43:25 AM,10.455
510,05/05/14 01:58:25 AM,10.455
511,05/05/14 02:13:25 AM,10.357
512,05/05/14 02:28:25 AM,10.357
513,05/05/14 02:43:25 AM,10.259
514,05/05/14 02:58:25 AM,10.259
515,05/05/14 03:13:25 AM,10.161
516,05/05/14 03:28:25 AM,10.161
517,05/05/14 03:43:25 AM,10.161
518,05/05/14 03:58:25 AM,10.161
519,05/05/14 04:13:25 AM,10.161
520,05/05/14 04:28:25 AM,10.063
521,05/05/14 04:43:25 AM,10.161
522,05/05/14 04:58:25 AM,10.161
523,05/05/14 05:13:25 AM,10.063
524,05/05/14 05:28:25 AM,10.063
525,05/05/14 05:43:25 AM,10.063
526,05/05/14 05:58:25 AM,10.063
527,05/05/14 06:13:25 AM,10.063
528,05/05/14 06:28:25 AM,10.063
529,05/05/14 06:43:25 AM,10.063
530,05/05/14 06:58:25 AM,10.063
531,05/05/14 07:13:25 AM,10.063
532,05/05/14 07:28:25 AM,10.063
533,05/05/14 07:43:25 AM,10.161
534,05/05/14 07:58:25 AM,10.161
535,05/05/14 08:13:25 AM,10.161
536,05/05/14 08:28:25 AM,10.259
537,05/05/14 08:43:25 AM,10.259
538,05/05/14 08:58:25 AM,10.259
539,05/05/14 09:13:25 AM,10.063
540,05/05/14 09:28:25 AM,10.063
541,05/05/14 09:43:25 AM,10.063
542,05/05/14 09:58:25 AM,10.063
543,05/05/14 10:13:25 AM,9.965
544,05/05/14 10:28:25 AM,10.063
545,05/05/14 10:43:25 AM,10.063
546,05/05/14 10:58:25 AM,10.161
547,05/05/14 11:13:25 AM,10.161
548,05/05/14 11:28:25 AM,10.063
549,05/05/14 11:43:25 AM,10.063
550,05/05/14 11:58:25 AM,10.161
551,05/05/14 12:13:25 PM,10.063
552,05/05/14 12:28:25 PM,10.063
553,05/05/14 12:43:25 PM,10.161
554,05/05/14 12:58:25 PM,10.259
555,05/05/14 01:13:25 PM,10.161
556,05/05/14 01:28:25 PM,10.161
557,05/05/14 01:43:25 PM,10.161
558,05/05/14 01:58:25 PM,10.161
559,05/05/14 02:13:25 PM,10.259
560,05/05/14 02:28:25 PM,10.259
561,05/05/14 02:43:25 PM,10.259
562,05/05/14 02:58:25 PM,10.161
563,05/05/14 03:13:25 PM,10.161
564,05/05/14 03:28:25 PM,10.161
565,05/05/14 03:43:25 PM,10.259
566,05/05/14 03:58:25 PM,10.357
567,05/05/14 04:13:25 PM,10.357
568,05/05/14 04:28:25 PM,10.259
569,05/05/14 04:43:25 PM,10.553
570,05/05/14 04:58:25 PM,10.553
571,05/05/14 05:13:25 PM,10.357
572,05/05/14 05:28:25 PM,10.259
573,05/05/14 05:43:25 PM,10.259
574,05/05/14 05:58:25 PM,10.259
575,05/05/14 06:13:25 PM,10.259
576,05/05/14 06:28:25 PM,10.161
577,05/05/14 06:43:25 PM,10.161
578,05/05/14 06:58:25 PM,10.161
579,05/05/14 07:13:25 PM,10.259
580,05/05/14 07:28:25 PM,10.259
581,05/05/14 07:43:25 PM,10.259
582,05/05/14 07:58:25 PM,10.259
583,05/05/14 08:13:25 PM,10.259
584,05/05/14 08:28:25 PM,10.259
585,05/05/14 08:43:25 PM,10.161
586,05/05/14 08:58:25 PM,10.161
587,05/05/14 09:13:25 PM,10.161
588,05/05/14 09:28:25 PM,10.161
589,05/05/14 09:43:25 PM,10.259
590,05/05/14 09:58:25 PM,10.259
591,05/05/14 10:13:25 PM,10.259
592,05/05/14 10:28:25 PM,10.259
593,05/05/14 10:43:25 PM,10.259
594,05/05/14 10:58:25 PM,10.259
595,05/05/14 11:13:25 PM,10.259
596,05/05/14 11:28:25 PM,10.259
597,05/05/14 11:43:25 PM,10.259
598,05/05/14 11:58:25 PM,10.259
599,05/06/14 12:13:25 AM,10.357
600,05/06/14 12:28:25 AM,10.259
601,05/06/14 12:43:25 AM,10.161
602,05/06/14 12:58:25 AM,10.161
603,05/06/14 01:13:25 AM,10.161
604,05/06/14 01:28:25 AM,10.161
605,05/06/14 01:43:25 AM,10.161
606,05/06/14 01:58:25 AM,10.161
607,05/06/14 02:13:25 AM,10.161
608,05/06/14 02:28:25 AM,10.161
609,05/06/14 02:43:25 AM,10.161
610,05/06/14 02:58:25 AM,10.161
611,05/06/14 03:13:25 AM,10.161
612,05/06/14 03:28:25 AM,10.063
613,05/06/14 03:43:25 AM,10.063
614,05/06/14 03:58:25 AM,10.063
615,05/06/14 04:13:25 AM,10.063
616,05/06/14 04:28:25 AM,10.063
617,05/06/14 04:43:25 AM,10.063
618,05/06/14 04:58:25 AM,10.063
619,05/06/14 05:13:25 AM,10.063
620,05/06/14 05:28:25 AM,10.161
621,05/06/14 05:43:25 AM,10.161
622,05/06/14 05:58:25 AM,10.161
623,05/06/14 06:13:25 AM,10.161
624,05/06/14 06:28:25 AM,10.161
625,05/06/14 06:43:25 AM,10.161
626,05/06/14 06:58:25 AM,10.161
627,05/06/14 07:13:25 AM,10.161
628,05/06/14 07:28:25 AM,10.161
629,05/06/14 07:43:25 AM,10.161
630,05/06/14 07:58:25 AM,10.161
631,05/06/14 08:13:25 AM,10.161
632,05/06/14 08:28:25 AM,10.161
633,05/06/14 08:43:25 AM,10.161
634,05/06/14 08:58:25 AM,10.161
635,05/06/14 09:13:25 AM,10.161
636,05/06/14 09:28:25 AM,10.161
637,05/06/14 09:43:25 AM,10.259
638,05/06/14 09:58:25 AM,10.161
639,05/06/14 10:13:25 AM,10.161
640,05/06/14 10:28:25 AM,10.161
641,05/06/14 10:43:25 AM,10.161
642,05/06/14 10:58:25 AM,10.161
643,05/06/14 11:13:25 AM,10.161
644,05/06/14 11:28:25 AM,10.161
645,05/06/14 11:43:25 AM,10.161
646,05/06/14 11:58:25 AM,10.161
647,05/06/14 12:13:25 PM,10.161
648,05/06/14 12:28:25 PM,10.259
649,05/06/14 12:43:25 PM,10.259
650,05/06/14 12:58:25 PM,10.259
651,05/06/14 01:13:25 PM,10.259
652,05/06/14 01:28:25 PM,10.259
653,05/06/14 01:43:25 PM,10.259
654,05/06/14 01:58:25 PM,10.259
655,05/06/14 02:13:25 PM,10.259
656,05/06/14 02:28:25 PM,10.259
657,05/06/14 02:43:25 PM,10.259
658,05/06/14 02:58:25 PM,10.357
659,05/06/14 03:13:25 PM,10.357
660,05/06/14 03:28:25 PM,10.455
661,05/06/14 03:43:25 PM,10.455
662,05/06/14 03:58:25 PM,10.357
663,05/06/14 04:13:25 PM,10.357
664,05/06/14 04:28:25 PM,10.357
665,05/06/14 04:43:25 PM,10.357
666,05/06/14 04:58:25 PM,10.357
667,05/06/14 05:13:25 PM,10.357
668,05/06/14 05:28:25 PM,10.357
669,05/06/14 05:43:25 PM,10.357
670,05/06/14 05:58:25 PM,10.357
671,05/06/14 06:13:25 PM,10.357
672,05/06/14 06:28:25 PM,10.357
673,05/06/14 06:43:25 PM,10.357
674,05/06/14 06:58:25 PM,10.357
675,05/06/14 07:13:25 PM,10.357
676,05/06/14 07:28:25 PM,10.357
677,05/06/14 07:43:25 PM,10.357
678,05/06/14 07:58:25 PM,10.357
679,05/06/14 08:13:25 PM,10.357
680,05/06/14 08:28:25 PM,10.357
681,05/06/14 08:43:25 PM,10.357
682,05/06/14 08:58:25 PM,10.259
683,05/06/14 09:13:25 PM,10.259
684,05/06/14 09:28:25 PM,10.357
685,05/06/14 09:43:25 PM,10.259
686,05/06/14 09:58:25 PM,10.357
687,05/06/14 10:13:25 PM,10.455
688,05/06/14 10:28:25 PM,10.455
689,05/06/14 10:43:25 PM,10.455
690,05/06/14 10:58:25 PM,10.553
691,05/06/14 11:13:25 PM,10.553
692,05/06/14 11:28:25 PM,10.455
693,05/06/14 11:43:25 PM,10.553
694,05/06/14 11:58:25 PM,10.553
695,05/07/14 12:13:25 AM,10.455
696,05/07/14 12:28:25 AM,10.455
697,05/07/14 12:43:25 AM,10.455
698,05/07/14 12:58:25 AM,10.455
699,05/07/14 01:13:25 AM,10.455
700,05/07/14 01:28:25 AM,10.455
701,05/07/14 01:43:25 AM,10.455
702,05/07/14 01:58:25 AM,10.455
703,05/07/14 02:13:25 AM,10.553
704,05/07/14 02:28:25 AM,10.553
705,05/07/14 02:43:25 AM,10.455
706,05/07/14 02:58:25 AM,10.455
707,05/07/14 03:13:25 AM,10.455
708,05/07/14 03:28:25 AM,10.455
709,05/07/14 03:43:25 AM,10.455
710,05/07/14 03:58:25 AM,10.455
711,05/07/14 04:13:25 AM,10.455
712,05/07/14 04:28:25 AM,10.455
713,05/07/14 04:43:25 AM,10.455
714,05/07/14 04:58:25 AM,10.455
715,05/07/14 05:13:25 AM,10.455
716,05/07/14 05:28:25 AM,10.455
717,05/07/14 05:43:25 AM,10.357
718,05/07/14 05:58:25 AM,10.357
719,05/07/14 06:13:25 AM,10.357
720,05/07/14 06:28:25 AM,10.357
721,05/07/14 06:43:25 AM,10.357
722,05/07/14 06:58:25 AM,10.357
723,05/07/14 07:13:25 AM,10.357
724,05/07/14 07:28:25 AM,10.357
725,05/07/14 07:43:25 AM,10.357
726,05/07/14 07:58:25 AM,10.357
727,05/07/14 08:13:25 AM,10.455
728,05/07/14 08:28:25 AM,10.455